Back to catalog

STARLINK-11547

AliveCommunicationsVLEO
NORAD 62587·PAYLOAD·🇺🇸 United States

Launched Jan 13, 2025 from Cape Canaveral Space Force Station

Loading…

Next Passes (next 24 hours)

TLE

FreshSource: CelesTrak SupGP

Epoch: Sep 14, 2026, 21:20 UTC

1 62587C 25008A   26257.88937500  .00075991  00000+0  59049-3 0  2572
2 62587  43.0012  65.9397 0001749 276.2921 246.1772 15.70789497    16

Track STARLINK-11547 in real time with AllMySat

Download on the App Store